Время (UTC), дата Ветер
(°,м/с) 
Видим.   Явления Облачность Т
(°С)
Тd
(°С)
f(%) Тe
(°С)
Pmin
(гПа)
dP
(гПа)
Po
(мм)
O2
(г/м3)
Тmin Tmax R s Состояние
почвы
00 01.06.13 040 (СВ) 20000 м    3/0 верхняя 
[Ci fib]
+16 +9.8 67 +19  1004.6  -0.4  715  270           
03 01.06.13 240 (ЮЗ) 20000 м    6/0 верхняя 
[Ci fib]
+17.5 +12 70 +23  1004.3  715  268  +13.3        сухая 
06 01.06.13 250 (З) 20000 м    8/3 600 м верхняя 
[Cu hum|Ci fib]
+24.2 +13.1 50 +31  1003.4  0.3  715  262           
09 01.06.13 270 (З) 20000 м    9/4 1000 м кучево-дожд., верхняя 
[Cb calv|Ci fib]
+24.2 +10.8 43 +27  1003.9  0.4  715  263           
12 01.06.13 280 (З) 20000 м  {ливн. осадки}  6/3 1000 м кучево-дожд., верхняя 
[Cb calv|Ci fib]
+25.9 +9.1 35 +27  1003.1  -0.5  715  261           
15 01.06.13 250 (З) 7-10  20000 м    8/3 1000 м кучево-дожд., верхняя 
[Cb calv|Ci fib]
+23.5 +8.8 39 +24  1004.5  0.9  716  264    +26.8       
18 01.06.13 290 (З) 10-16{17}  20000 м    9/4 1000 м кучево-дожд., верхняя 
[Cb calv|Ci fib]
+17.5 +13.7 78 +25  1008.2  2.6  717  269           
21 01.06.13 240 (ЮЗ) 6{16}  20000 м  {ливн. осадки}  10/5 600 м кучево-дожд., средняя 
[Cb calv|Ac und]
+14.9 +12.5 86 +20  1009.2  0.5  718  272           
00 02.06.13 250 (З) 20000 м  {ливн. осадки}  6/3 1000 м кучево-дожд., средняя 
[Cb calv|Ac trans]
+14.5 +11.4 82 +18  1009.4  0.1  718  272           
03 02.06.13 260 (З) 20000 м    5/0 средняя, верхняя 
[Ac trans|Ci fib]
+15.3 +11.4 78 +19  1009.9  0.6  718  272  +13.8      влажная 
06 02.06.13 270 (З) 6{11}  20000 м    5/5 600 м 
[Cu hum]
+18.8 +12.4 66 +24  1010.1  0.8  719  269           
09 02.06.13 270 (З) 6-10{11}  20000 м    8/8 600 м 
[Cu hum]
+21.8 +7.8 40 +22  1009.2  -0.4  719  267           
12 02.06.13 280 (З) 6{11}  20000 м    6/6 1000 м 
[Cu hum]
+23.5 +4.8 30 +24  1008.5  -0.5  718  266           
15 02.06.13 300 (СЗ) 4{11}  20000 м    3/1 1000 м верхняя 
[Cu hum|Ci fib]
+22.5 +4.8 32 +23  1007.8  -0.8  718  266    +23.5       
18 02.06.13 340 (С) 2000 м    3/0 верхняя 
[Ci fib]
+19 +6.7 45 +20  1008.6  0.3  718  269           
21 02.06.13 020 (С) 20000 м    3/0 верхняя 
[Ci fib]
+15.5 +8.6 63 +17  1007.6  -1.5  717  272           
00 03.06.13 090 (В) 20000 м    ясно 
+14 +8.3 69 +15  1006.5  -1.4  716  273           
03 03.06.13 070 (В) 20000 м    8/0 средняя, верхняя 
[Ac trans|Ci fib]
+15.5 +10.1 70 +18  1005.5  -0.6  715  271  +13.8        сухая 
06 03.06.13 070 (В) 20000 м    8/0 средняя, верхняя 
[Ac trans|Ci fib]
+20.5 +9.3 49 +22  1003.9  -0.7  715  266           
09 03.06.13 110 (В) 20000 м    8/3 600 м верхняя 
[Cu hum|Ci fib]
+24.4 +9.1 38 +25  1002.9  -0.3  714  263           
12 03.06.13 210 (ЮЗ) 7-11{11}  20000 м  гроза, ливневой дождь  10/5 1000 м кучево-дожд., средняя 
[Cb cap|Ac und]
+20.2 +11.5 57 +24  1004.6  715  266           
15 03.06.13 310 (СЗ) 20000 м  в посл. час ливневой дождь{гроза}  9/8 200 м кучево-дожд., средняя 
[Cb calv|Ac trans]
+14.8 +12 83 +20  1007  1.3  716  271    +25.5     
18 03.06.13 250 (З) 20000 м  {гроза, ливн. осадки}  9/4 600 м кучево-дожд., средняя 
[Cb calv|Ac trans]
+13.7 +11.3 85 +18  1007.7  0.4  717  273           
21 03.06.13 250 (З) 20000 м    5/0 средняя 
[Ac trans]
+13.1 +8.2 72 +13  1007.8  717  274           
00 04.06.13 250 (З) 20000 м    9/0 средняя 
[Ac trans]
+12.6 +10.4 86 +16  1008.7  0.8  717  274           
03 04.06.13 360 (С) 20000 м  {ливн. осадки}  8/3 600 м кучево-дожд., средняя 
[Cb calv|Ac trans]
+15.7 +11.5 76 +20  1008.1  717  271  +12.6    0.3     
06 04.06.13 050 (СВ) 20000 м  {ливн. осадки}  9/3 600 м кучево-дожд., средняя 
[Cb calv|Ac trans]
+18.9 +12.8 68 +25  1008.3  0.8  718  268           
09 04.06.13 080 (В) 20000 м    9/4 600 м кучево-дожд., средняя 
[Cb calv|Ac trans]
+22.1 +11.4 51 +26  1008.5  0.8  718  266           
12 04.06.13 030 (СВ) 20000 м  {ливн. осадки}  8/5 1000 м кучево-дожд., средняя 
[Cb calv|Ac trans]
+22.6 +12.8 54 +29  1008.6  0.2  718  265           
15 04.06.13 270 (З) 10 км  гроза, ливневой дождь  9/8 600 м кучево-дожд., средняя 
[Cb cap|Ac trans]
+17.1 +12.5 74 +23  1012.2  0.2  720  271    +22.7     
18 04.06.13 330 (СЗ) 1{12}  20000 м  гроза без осадков{ливн. осадки}  10/8 800 м кучево-дожд., средняя 
[Cb calv|Ac und]
+14.4 +12.6 89 +22  1014.4  1.6  721  274           
21 04.06.13 350 (С) 20000 м  {гроза}  8/3 1000 м кучево-дожд., средняя 
[Cb calv|Ac trans]
+13.7 +11.6 87 +18  1014.9  0.3  722  275           
00 05.06.13 190 (Ю) 20000 м  {гроза}  3/1 1000 м кучево-дожд., средняя 
[Cb cap|Ac trans]
+10.5 +9.4 93 +13  1015.5  722  278           
03 05.06.13 180 (Ю) 20000 м    1/1 600 м 
[Sc diur, vesp]
+15 +12.1 83 +21  1015.5  0.9  722  273  +10.2      влажная 
06 05.06.13 150 (ЮВ) 20000 м    3/3 1000 м 
[Cu hum]
+20.3 +12.5 61 +26  1015.3  0.7  723  269           
09 05.06.13 280 (З) 20000 м    5/5 1000 м 
[Cu hum]
+23.2 +12 49 +28  1014.4  -0.4  723  266           
12 05.06.13 340 (С) 20000 м    5/5 1000 м 
[Cu hum]
+24.5 +8.5 36 +25  1013.8  -0.4  722  266           
15 05.06.13 330 (СЗ) 20000 м    5/3 1000 м верхняя 
[Cu hum|Ci fib]
+23.8 +8.3 37 +24  1013.5  -0.4  722  266    +25       
18 05.06.13 120 (ЮВ) 20000 м  в посл. час гроза  9/5 1000 м кучево-дожд., средняя 
[Cb calv|Ac trans]
+19 +8.8 52 +21  1015.3  0.9  723  271           
21 05.06.13 340 (С) 20000 м  гроза без осадков{ливн. осадки}  9/5 1000 м кучево-дожд., средняя 
[Cb calv|Ac trans]
+15.8 +13.1 84 +22  1015.9  0.9  723  273           
00 06.06.13 170 (Ю) 20000 м  {гроза, ливн. осадки}  8/5 600 м кучево-дожд., средняя 
[Cb calv|Ac trans]
+14.9 +12.1 83 +21  1015.6  -0.5  722  274           
03 06.06.13 110 (В) 20000 м  в посл. час гроза{ливн. осадки}  10/5 600 м кучево-дожд., средняя 
[Cb calv|Ac und]
+15.6 +12.5 82 +23  1015.9  0.4  723  273  +14.6       
06 06.06.13 130 (ЮВ) 20000 м  {гроза, ливн. осадки}  8/3 1000 м кучево-дожд., верхняя 
[Cb calv|Ci]
+19.2 +11.7 62 +24  1015.4  0.2  723  270           
09 06.06.13 110 (В) 5{12}  20000 м    8/8 900 м кучево-дожд. 
[Cb calv]
+22.2 +12.6 54 +28  1014.6  -0.2  723  267           
12 06.06.13 110 (В) 20000 м    8/6 900 м кучево-дожд., верхняя 
[Cb calv|Ci fib]
+24.3 +11.2 44 +28  1012.5  -1.7  721  265           
15 06.06.13 210 (ЮЗ) 20000 м    8/4 600 м кучево-дожд., верхняя 
[Cb calv|Ci fib]
+22.5 +11.3 49 +26  1012.3  -0.4  721  266    +24.9       
18 06.06.13 280 (З) 4{19}  4000 м  гроза, ливневой дождь  10/8 270 м кучево-дожд., средняя 
[Cb cap|Ac und]
+13.9 +13 94 +20  1015.3  1.4  722  274           
21 06.06.13 340 (С) 20000 м  {гроза, ливн. осадки}  8/0 средняя 
[Ac trans]
+14.6 +12.5 87 +22  1013.8  -1.4  721  273           
00 07.06.13 350 (С) 20000 м  {гроза, ливн. осадки}  6/0 средняя 
[Ac trans]
+14.8 +10.9 77 +18  1013.1  -0.6  721  273           
03 07.06.13 350 (С) 20000 м    9/3 600 м кучево-дожд., средняя 
[Cb calv|Ac trans]
+15 +12 82 +21  1013.4  0.4  721  273  +12.5    67    мокрая 
06 07.06.13 010 (С) 20000 м    10/3 1000 м кучево-дожд., средняя 
[Cb calv|Ac und]
+17.1 +13.1 77 +24  1013.6  0.5  721  271           
09 07.06.13 200 (Ю) 20000 м    10/5 1000 м кучево-дожд., средняя 
[Cb calv|Ac und]
+17.3 +13.6 79 +25  1014.5  0.9  722  271           
12 07.06.13 240 (ЮЗ) 20000 м    10/3 600 м средняя 
[Cu hum|Ac und]
+18.1 +12.8 71 +24  1013.4  -0.9  721  270           
15 07.06.13 330 (СЗ) 20000 м    10/4 600 м кучево-дожд., средняя 
[Cb calv|Ac und]
+17.1 +13.2 78 +25  1014.2  0.6  722  271    +19.3       
18 07.06.13 330 (СЗ) 20000 м  в посл. час гроза{ливн. осадки}  10/4 600 м кучево-дожд., средняя 
[Cb calv|Ac und]
+14.9 +14.3 96 +24  1014.9  0.4  722  273           
21 07.06.13 310 (СЗ) 20000 м    9/4 1000 м кучево-дожд., средняя 
[Cb calv|Ac trans]
+14.4 +13.1 92 +22  1014.8  -0.3  722  274           
00 08.06.13 тихо ()   20000 м    10/3 1000 м кучево-дожд., средняя 
[Cb calv|Ac und]
+14.1 +12.8 92 +20  1014.4  -0.5  721  274           
03 08.06.13 тихо ()   20000 м    10/3 600 м кучево-дожд., средняя 
[Cb calv|Ac und]
+14.5 +13.2 92 +21  1014.5  0.2  722  273  +13.5      влажная 
06 08.06.13 150 (ЮВ) 20000 м  в посл. час ливневой дождь  10/5 1000 м кучево-дожд., средняя 
[Cb cap|Ac und]
+16.3 +13.8 85 +25  1014.5  0.4  722  272           
09 08.06.13 110 (В) 20000 м    10/4 600 м средняя, верхняя 
[Cu med, cong|Ac As|Ci sp]
+19.7 +14 70 +29  1013.7  -0.2  722  268           
12 08.06.13 120 (ЮВ) 20000 м    10/3 600 м кучево-дожд., средняя, верхняя 
[Cb cap|Ac As|Ci]
+21.9 +11.8 53 +26  1012.5  -0.8  721  267           
15 08.06.13 090 (В) 20000 м    8/3 600 м кучево-дожд., средняя, верхняя 
[Cb cap|Ac trans|Ci ing]
+21.5 +9.7 47 +23  1012.1  -0.5  721  267    +21.9       
18 08.06.13 150 (ЮВ) 20000 м    9/4 600 м кучево-дожд., средняя 
[Cb calv|Ac trans]
+17.2 +10.6 65 +21  1013.1  0.3  721  271           
21 08.06.13 090 (В) 20000 м    4/0 средняя 
[Ac As]
+14.1 +9.8 75 +17  1013.3  -0.4  721  274           
00 09.06.13 030 (СВ) 20000 м    3/0 средняя 
[Ac trans]
+13.5 +10 79 +17  1013.5  0.1  721  275           
03 09.06.13 100 (В) 20000 м    8/1 1000 м кучево-дожд., средняя 
[Cb calv|Ac trans]
+14.8 +11.8 82 +19  1013.9  0.6  721  273  +12.3        влажная 
06 09.06.13 120 (ЮВ) 20000 м    4/0 верхняя 
[Cc]
+20.4 +11.6 57 +25  1013  0.1  721  268           
09 09.06.13 110 (В) 8-12{12}  20000 м    6/4 600 м верхняя 
[Cu hum|Ci fib]
+24.1 +7.1 34 +24  1012.5  0.1  721  266           
12 09.06.13 110 (В) 7-11{12}  20000 м    6/4 1000 м верхняя 
[Cu hum|Ci fib]
+24.7 +6.7 32 +25  1011.5  -0.8  721  265           
15 09.06.13 110 (В) 6{12}  20000 м    5/3 1000 м верхняя 
[Cu hum|Ci fib]
+23.2 +6.3 34 +23  1011.2  -0.5  720  266    +24.9       
18 09.06.13 120 (ЮВ) 20000 м    3/0 верхняя 
[Ci fib]
+17.6 +8.2 54 +18  1013  0.7  721  271           
21 09.06.13 100 (В) 20000 м    ясно 
+15.6 +7.7 59 +16  1013.7  0.3  721  273           
00 10.06.13 120 (ЮВ) 20000 м    ясно 
+15.2 +7.6 60 +16  1014  0.2  721  274           
03 10.06.13 080 (В) 20000 м    3/0 верхняя 
[Ci fib]
+15.8 +10.5 71 +20  1014.3  0.4  722  273  +13.9        сухая 
06 10.06.13 110 (В) 20000 м    3/0 верхняя 
[Ci fib]
+21.3 +8.9 45 +22  1013.6  0.3  722  268           
09 10.06.13 090 (В) 7-10{11}  20000 м    4/3 600 м верхняя 
[Cu hum|Ci fib]
+24.4 +5.1 29 +24  1013.1  722  266           
12 10.06.13 070 (В) 7-11{12}  20000 м    5/3 600 м верхняя 
[Cu hum|Ci fib]
+25.4 +4 25 +25  1011.8  -1.1  721  265           
15 10.06.13 090 (В) 5{12}  20000 м    8/4 1000 м кучево-дожд., верхняя 
[Cb calv|Ci fib]
+24.6 +7.9 34 +25  1011.3  -0.6  720  265    +25.6       
18 10.06.13 140 (ЮВ) 20000 м    8/3 600 м верхняя 
[Sc diur, vesp|Ci fib]
+18.9 +11.3 61 +24  1013.2  0.9  721  270           
21 10.06.13 110 (В) 20000 м    4/0 средняя 
[Ac trans]
+16.9 +9.9 63 +19  1013.5  0.1  721  272           
00 11.06.13 100 (В) 20000 м    3/0 средняя 
[Ac trans]
+13.5 +9.9 79 +15  1014  -0.2  721  275           
03 11.06.13 110 (В) 20000 м    4/0 средняя, верхняя 
[Ac trans|Ci fib]
+15.7 +10.7 72 +19  1014.5  0.9  722  273  +12.9        сухая 
06 11.06.13 100 (В) 20000 м    6/0 средняя 
[Ac trans]
+21.5 +10.7 50 +24  1013.5  0.1  722  268           
09 11.06.13 110 (В) 10-13{16}  20000 м    5/0 средняя 
[Ac trans]
+24.9 +7.3 32 +25  1012.3  -0.6  721  265           
12 11.06.13 100 (В) 8-12{16}  20000 м    6/3 600 м верхняя 
[Cu hum|Ci fib]
+25.2 +9.2 36 +26  1011.3  -0.9  721  264           
15 11.06.13 110 (В) 8-11  20000 м    9/3 600 м кучево-дожд., средняя 
[Cb calv|Ac trans]
+23.3 +9.4 41 +24  1011.3  -0.3  720  266    +25.7       
18 11.06.13 100 (В) 3{11}  20000 м    6/0 средняя 
[Ac trans]
+17.2 +11.3 68 +22  1012.7  0.3  721  271           
21 11.06.13 100 (В) 20000 м    3/0 средняя 
[Ac trans]
+14.9 +9.6 71 +16  1012.2  -0.9  720  273           
00 12.06.13 070 (В) 20000 м    ясно 
+13.4 +8.4 72 +13  1012  -0.5  720  275           
03 12.06.13 050 (СВ) 20000 м    8/0 средняя 
[Ac trans]
+15.2 +10.1 72 +17  1012.1  -0.5  720  273  +12        сухая 
06 12.06.13 100 (В) 8-13{13}  20000 м    8/0 верхняя 
[Ci fib]
+19.3 +11.9 62 +24  1010.6  -0.6  719  268           
09 12.06.13 110 (В) 11-16{18}  20000 м    9/0 средняя, верхняя 
[Ac trans|Ci fib]
+24.1 +10.7 43 +27  1009.3  -0.6  719  264           
12 12.06.13 100 (В) 8-12{16}  20000 м    8/3 600 м средняя 
[Cu hum|Ac trans]
+23.8 +12 48 +29  1008.2  -1.1  718  264           
15 12.06.13 100 (В) 8-10{13}  20000 м    5/3 600 м верхняя 
[Cu hum|Ci fib]
+24.6 +9.7 39 +26  1007.5  -0.6  718  264    +26       
18 12.06.13 080 (В) 4{10}  20000 м    3/0 средняя 
[Ac trans]
+18.9 +10.8 59 +22  1008.7  0.3  718  269           
21 12.06.13 050 (СВ) 20000 м    3/0 средняя 
[Ac trans]
+17.7 +10.7 64 +21  1008.8  0.1  718  270           
00 13.06.13 050 (СВ) 20000 м    ясно 
+15.7 +10.7 72 +20  1009.1  -0.1  718  271           
03 13.06.13 070 (В) 20000 м    3/0 верхняя 
[Ci fib]
+17.5 +12.6 73 +24  1009.2  0.4  718  269  +13.6        сухая 
06 13.06.13 110 (В) 20000 м    6/0 верхняя 
[Ci fib]
+23.9 +13.4 52 +31  1007.9  0.1  718  263           
09 13.06.13 050 (СВ) 20000 м    6/0 верхняя 
[Ci fib]
+27.2 +11.9 39 +32  1007.1  -0.3  718  261           
12 13.06.13 080 (В) 20000 м    6/3 600 м верхняя 
[Cu hum|Ci fib]
+29.8 +12.2 34 +35  1005.7  -0.9  717  258           
15 13.06.13 120 (ЮВ) 20000 м    8/4 1000 м кучево-дожд., средняя 
[Cb calv|Ac trans]
+26.8 +14.2 46 +35  1005.9  -0.3  717  260    +30.5       
18 13.06.13 180 (Ю) 20000 м    5/0 средняя 
[Ac trans]
+22.6 +13.1 55 +29  1007.2  0.5  717  264           
21 13.06.13 070 (В) 20000 м    ясно 
+19.3 +13.5 69 +27  1007.7  717  267           
00 14.06.13 070 (В) 20000 м    ясно 
+17.8 +12.7 72 +25  1008.1  717  269           
03 14.06.13 130 (ЮВ) 20000 м    8/0 верхняя 
[Ci fib]
+19.4 +14.5 73 +29  1008.6  0.9  718  267  +13.8        сухая 
06 14.06.13 060 (СВ) 20000 м    9/0 верхняя 
[Ci fib]
+22.4 +15.5 65 +33  1008.2  0.9  718  264           
09 14.06.13 040 (СВ) 20000 м    8/0 верхняя 
[Ci fib]
+27 +11.6 38 +31  1007.7  0.2  718  261           
12 14.06.13 060 (СВ) 20000 м    5/0 
+30.6 +11.3 30 +34  1006.3  -0.7  718  258           
15 14.06.13 080 (В) 20000 м    5/0 верхняя 
[Ci fib]
+30.2 +12.5 34 +36  1005.7  -0.6  717  258    +31.3       
18 14.06.13 190 (Ю) 20000 м    3/0 средняя 
[Ac trans]
+24.6 +14 52 +33  1007.2  0.6  718  262           
21 14.06.13 060 (СВ) 20000 м    ясно 
+21.6 +15.2 67 +32  1008.1  0.3  718  265           
00 15.06.13 090 (В) 20000 м    3/0 верхняя 
[Ci fib]
+17.8 +13.8 77 +26  1009.2  0.4  718  269           
03 15.06.13 100 (В) н/о    н/о 
+18.9 +14.7 77 +28  1009.3  718  268           
06 15.06.13 110 (В) 20000 м    1/1 600 м 
[Cu hum]
+23.8 +15.3 59 +34  1009.2  0.6  719  263           
09 15.06.13 130 (ЮВ) 20000 м    3/1 1000 м верхняя 
[Cu hum|Ci fib]
+28.8 +14.7 42 +38  1007.3  -0.9  718  259           
12 15.06.13 110 (В) 20000 м    ясно 
+31.3 +13.3 33 +38  1005.8  -1.1  717  257           
15 15.06.13 110 (В) 11  20000 м    3/0 средняя 
[Ac trans]
+31.5 +2.7 16 +32  1004.6  -1.2  717  258    +32.4       
18 15.06.13 110 (В) 8-11{15}  20000 м    6/3 600 м кучево-дожд., средняя 
[Cb calv|Ac trans]
+26.4 +3.8 23 +26  1006.5  717  263           
21 15.06.13 100 (В) 20000 м    8/3 600 м кучево-дожд., средняя 
[Cb calv|As trans]
+22.8 +1.3 24 +23  1007.1  -0.1  717  266           
00 16.06.13 360 (С) 4{10}  н/о    н/о 
+17.8 +11.8 68 +23  1007.3  0.2  717  269           
03 16.06.13 310 (СЗ) 20000 м  в посл. час гроза{ливн. осадки}  6/3 600 м кучево-дожд., средняя 
[Cb calv|Ac trans]
+17.3 +13.6 79 +25  1008.6  0.5  718  269  +17.1       
06 16.06.13 310 (СЗ) 20000 м  {гроза, ливн. осадки}  4/3 600 м средняя 
[Cu hum|Ac cast]
+22 +18.5 81 +39  1007.7  0.1  718  263           
09 16.06.13 320 (СЗ) н/о    н/о 
+24.2 +11 43 +28  1008.1  0.6  718  264           
12 16.06.13 300 (СЗ) 20000 м    6/3 1000 м кучево-дожд., средняя, верхняя 
[Cb cap|Ac trans|Ci sp]
+25.6 +9.7 37 +27  1006.8  -1.1  717  263           
15 16.06.13 290 (З) 20000 м  гроза без осадков  8/3 1000 м кучево-дожд., средняя 
[Cb cap|Ac trans]
+22.5 +13.7 57 +30  1006.7  -0.4  717  264    +27.3       
18 16.06.13 260 (З) 5{10}  20000 м  зарница{гроза}  9/6 600 м кучево-дожд., средняя 
[Cb calv|Ac trans]
+21.5 +15.1 67 +32  1008.1  1.1  718  265           
21 16.06.13 280 (З) 5{14}  20000 м  гроза без осадков{ливн. осадки}  9/4 1000 м кучево-дожд., средняя 
[Cb cap|Ac trans]
+18.6 +15.2 81 +29  1007.9  -0.7  717  267           
00 17.06.13 250 (З) 20000 м  {гроза, ливн. осадки}  9/4 1000 м кучево-дожд., средняя 
[Cb calv|Ac trans]
+17.9 +16.2 90 +30    717  268    -1.7       
03 17.06.13 280 (З) 20000 м    9/6 1000 м кучево-дожд., средняя 
[Cb calv|Ac trans]
+19 +15.8 82 +30  1007.8  717  267  +17.9    0.8    влажная 
06 17.06.13 280 (З) н/о    н/о 
+20.1 +15.7 76 +31  1008.3  718  266           
09 17.06.13 250 (З) 20000 м    10/4 1000 м кучево-дожд., средняя 
[Cb calv|Ac und]
+22.3 +16.2 68 +34  1008.7  0.7  719  264           
12 17.06.13 170 (Ю) 20000 м  {ливн. осадки}  8/4 600 м кучево-дожд., средняя 
[Cb calv|Ac trans]
+22 +18 78 +38  1008.1  -0.6  718  264           
15 17.06.13 180 (Ю) 20000 м  гроза без осадков  8/4 600 м кучево-дожд., средняя 
[Cb calv|Ac trans]
+24.4 +17.7 66 +40  1007  -0.7  718  261    +25.9  0.3     
18 17.06.13 100 (В) 4{12}  4000 м  гроза, ливневой дождь  10/10 180 м кучево-дожд. 
[Cb cap|Ac und]
+15.7 +14.3 91 +25  1010.9  2.2  719  271           
21 17.06.13 300 (СЗ) 20000 м  в посл. час ливневой дождь{гроза}  10/6 700 м кучево-дожд., средняя 
[Cb calv|Ac und]
+16.8 +16.1 96 +29  1009  -1.6  718  269           
00 18.06.13 290 (З) 20000 м  {гроза, ливн. осадки}  8/3 600 м кучево-дожд., средняя 
[Cb calv|Ac trans]
+18.3 +15.9 86 +31  1008  -0.7  717  267           
03 18.06.13 300 (СЗ) 20000 м    8/3 600 м кучево-дожд., средняя 
[Cb calv|Ac trans]
+18.4 +15.9 85 +31  1008.2  0.2  718  267  +15.6    15    влажная 
06 18.06.13 280 (З) 20000 м    8/3 1000 м кучево-дожд., средняя 
[Cb calv|Ac trans]
+20.8 +16.2 75 +33  1007.9  0.2  718  265           
09 18.06.13 280 (З) 20000 м    8/5 600 м кучево-дожд., средняя 
[Cb calv|Ac trans]
+25.7 +15.5 53 +36  1006.5  -0.6  717  261           
12 18.06.13 280 (З) 20000 м    8/6 1000 м кучево-дожд., средняя 
[Cb calv|Ac trans]
+27.3 +14.8 46 +37  1005.1  -1.1  716  259           
15 18.06.13 300 (СЗ) 20000 м  гроза, ливневой дождь  10/6 600 м кучево-дожд., средняя 
[Cb cap|Ac und]
+18.2 +15.5 84 +29  1007.2  0.5  717  267    +27.5  0.0     
18 18.06.13 250 (З) 20000 м  {гроза, ливн. осадки}  9/3 1000 м кучево-дожд., средняя 
[Cb calv|Ac trans]
+18.4 +16 86 +31  1008.2  718  267           
21 18.06.13 240 (ЮЗ) н/о    н/о 
+17 +14.5 85 +26  1007.9  -0.9  717  269           
00 19.06.13 280 (З) 6{12}  н/о    н/о 
+17 +15.1 89 +27  1007.8  717  269           
03 19.06.13 280 (З) н/о    н/о 
+17.1 +15.7 91 +28  1008.7  0.8  718  269  +16.6         
06 19.06.13 300 (СЗ) 20000 м    6/6 500 м 
[Sc]
+19.5 +15.2 76 +30  1008.9  718  267           
09 19.06.13 300 (СЗ) 20000 м    5/5 600 м 
[Cu hum]
+23.6 +14.9 58 +33  1008.3  0.1  718  263           
12 19.06.13 290 (З) 6{11}  н/о    н/о 
+24.6 +9.1 37 +25  1007.9  -0.3  718  264           
15 19.06.13 340 (С) 20000 м    6/3 1000 м верхняя 
[Cu hum|Ci fib]
+23.3 +8.2 38 +23  1008.2  -0.3  718  265    +25.2       
18 19.06.13 310 (СЗ) н/о    н/о 
+19.1 +8.7 51 +20  1010.3  1.3  719  269           
21 19.06.13 360 (С) 20000 м    4/3 1000 м верхняя 
[Sc|Ci fib]
+16.2 +9.3 64 +17  1011.9  0.8  720  272           
00 20.06.13 310 (СЗ) 20000 м    3/0 верхняя 
[Ci fib]
+14.1 +9.4 73 +15  1011.7  -0.5  719  274           
03 20.06.13 300 (СЗ) 20000 м    3/0 средняя 
[Ac trans]
+13.7 +9.7 77 +15  1013.2  1.3  720  275  +12.1        сухая 
06 20.06.13 280 (З) 6-10{10}  н/о    н/о 
+18.2 +8.4 53 +18  1013.4  0.9  721  271           
09 20.06.13 300 (СЗ) 6{11}  20000 м    6/6 800 м 
[Cu med, cong]
+20.8 +7.1 41 +21  1013  0.2  721  269           
12 20.06.13 310 (СЗ) 6{10}  20000 м    8/5 600 м верхняя 
[Cu hum|Ci fib]
+21.8 +5.1 34 +22  1013  0.2  721  268           
15 20.06.13 350 (С) 20000 м    6/4 600 м верхняя 
[Cu hum|Ci fib]
+21.5 +7.7 41 +22  1013.4  0.3  722  268    +23.2       
18 20.06.13 040 (СВ) 20000 м    5/3 600 м кучево-дожд., средняя 
[Cb calv|Ac trans]
+16.4 +8.8 61 +17  1015.5  1.1  722  273           
21 20.06.13 250 (З) н/о    н/о 
+12.1 +8.6 79 +12  1016.5  723  277           
00 21.06.13 250 (З) 20000 м    3/0 средняя 
[Ac trans]
+12.1 +8.9 81 +12  1016  -0.4  722  277           
03 21.06.13 270 (З) 20000 м    8/3 1000 м средняя 
[Sc diur, vesp|Ac trans]
+15.1 +9.4 69 +16  1015.7  0.6  722  274  +11.6        сухая 
06 21.06.13 250 (З) 20000 м    3/1 300 м средняя 
[Cu hum|Ac trans]
+20.5 +8 44 +21  1014.8  722  269           
09 21.06.13 260 (З) 20000 м    4/4 600 м кучево-дожд., верхняя 
[Cb calv|Ci fib]
+21.4 +6.4 38 +21  1014.3  -0.4  722  269           
12 21.06.13 270 (З) 6-10{11}  20000 м    8/4 600 м кучево-дожд., верхняя 
[Cb calv|Ci fib]
+24.3 +4.5 28 +24  1012.7  -1.1  721  266           
15 21.06.13 280 (З) 20000 м    8/5 1000 м кучево-дожд., верхняя 
[Cb calv|Ci fib]
+22.1 +5 33 +22  1012.9  -0.1  721  268    +25       
18 21.06.13 260 (З) н/о    н/о 
+15.5 +7.6 59 +16  1014.9  0.8  722  274           
21 21.06.13 270 (З) 20000 м    1/0 средняя 
[Ac trans]
+15.7 +7.3 57 +15  1014.5  -0.2  722  274           
00 22.06.13 250 (З) 20000 м    1/0 средняя 
[Ac trans]
+15.2 +8.8 66 +15  1013.9  -0.7  721  274           
03 22.06.13 250 (З) 20000 м    10/3 1000 м кучево-дожд., средняя 
[Cb cap|Ac und]
+15.7 +10.6 72 +18  1013.8  721  273  +14.5        сухая 
06 22.06.13 270 (З) 20000 м    9/8 600 м кучево-дожд., средняя 
[Cb calv|Ac trans]
+18.3 +12.4 68 +23  1012.3  -0.9  720  270           
09 22.06.13 250 (З) 20000 м  гроза, ливневой дождь  9/5 600 м кучево-дожд., средняя 
[Cb calv|Ac trans]
+21.1 +15.1 69 +31  1010.6  -1.1  720  266           
12 22.06.13 270 (З) 20000 м  гроза, ливневой дождь  10/6 300 м кучево-дожд., средняя 
[Cb cap|Ac und]
+14.6 +12.4 87 +19  1012.7  0.8  720  273           
15 22.06.13 280 (З) 20000 м  {гроза, ливн. осадки}  9/3 1000 м кучево-дожд., средняя 
[Cb calv|Ac trans]
+16.9 +11.8 72 +22  1010.9  -1.3  719  271    +21.1  10     
18 22.06.13 280 (З) 20000 м    8/3 1000 м кучево-дожд., средняя 
[Cb calv|Ac trans]
+14.9 +10.2 73 +16  1011.7  0.4  720  273           
21 22.06.13 250 (З) 20000 м    5/3 1000 м кучево-дожд., средняя 
[Cb calv|Ac trans]
+14.5 +11.8 84 +19  1011.9  0.1  720  273           
00 23.06.13 270 (З) 20000 м  слаб. ливневой дождь  6/3 1000 м кучево-дожд., средняя 
[Cb cap|Ac trans]
+14.7 +12.1 84 +19  1011.4  -0.4  719  273           
03 23.06.13 260 (З) 20000 м  в посл. час гроза{ливн. осадки}  6/4 1000 м кучево-дожд., средняя 
[Cb calv|Ac trans]
+15.4 +13 86 +21  1011.4  0.2  719  272  +14.2    0.8     
06 23.06.13 260 (З) 20000 м  {гроза, ливн. осадки}  6/6 1000 м кучево-дожд. 
[Cb calv]
+20.5 +15.9 75 +32  1010.8  0.3  720  266           
09 23.06.13 300 (СЗ) 20000 м    8/6 840 м кучево-дожд. 
[Cb calv]
+22.7 +15.8 65 +34  1010.1  -0.3  719  264           
12 23.06.13 340 (С) 10 км  гроза, ливневой дождь  10/8 900 м кучево-дожд., средняя 
[Cb cap|Ac und]
+16.4 +14.1 86 +25  1010.8  -0.4  719  270           
15 23.06.13 240 (ЮЗ) 20000 м  в посл. час ливневой дождь{гроза}  9/5 600 м кучево-дожд., средняя 
[Cb calv|Ac trans]
+18.1 +16.6 91 +31  1011.4  0.9  720  268    +23.4     
18 23.06.13 310 (СЗ) 20000 м  {гроза, ливн. осадки}  6/3 1000 м кучево-дожд., средняя 
[Cb calv|Ac trans]
+17.1 +15.8 92 +28  1011.4  -0.2  720  269           
21 23.06.13 270 (З) 20000 м    5/0 средняя 
[Ac trans]
+17 +14.8 87 +26  1010.9  -0.5  719  270           
00 24.06.13 290 (З) 20000 м    6/0 средняя 
[Ac trans]
+16.1 +14.3 89 +25  1011.1  0.1  719  271           
03 24.06.13 280 (З) 20000 м    6/3 1000 м средняя 
[Sc diur, vesp|Ac trans]
+16.4 +14.9 91 +26  1011  -0.1  719  270  +16        влажная 
06 24.06.13 270 (З) 20000 м    8/3 600 м кучево-дожд., средняя 
[Cb calv|Ac trans]
+20.2 +16 77 +32  1010.3  719  266           
09 24.06.13 310 (СЗ) н/о    н/о 
+23.3 +11.7 48 +28  1009.7  0.2  719  265           
12 24.06.13 330 (СЗ) 20000 м    8/4 600 м верхняя 
[Cu med, cong|Ci fib]
+23.8 +12.5 49 +29  1009.4  -0.2  719  264           
15 24.06.13 290 (З) н/о    н/о 
+24.3 +9.9 40 +26  1009  -0.2  719  264    +25.3       
18 24.06.13 300 (СЗ) н/о    н/о 
+20.5 +10.3 52 +23  1010.1  0.4  719  268           
21 24.06.13 310 (СЗ) 20000 м    4/0 средняя 
[Ac trans]
+19.2 +10.7 58 +23  1010.3  -0.2  719  269           
00 25.06.13 300 (СЗ) н/о    н/о 
+17.3 +10.7 65 +21  1010.2  -0.4  719  270           
03 25.06.13 300 (СЗ) 20000 м    1/0 средняя 
[Ac trans]
+18.7 +11.9 65 +24  1010.4  0.3  719  269  +17.2        сухая 
06 25.06.13 300 (СЗ) 20000 м    3/0 средняя 
[Ac trans]
+23.2 +10 43 +25  1009.5  -0.2  719  265           
09 25.06.13 290 (З) 6{10}  20000 м    6/1 600 м средняя 
[Cu med, cong|Ac trans]
+24 +13.3 51 +31  1009.2  -0.1  719  264           
12 25.06.13 300 (СЗ) 7-10{11}  20000 м    3/1 600 м верхняя 
[Cu hum|Ci fib]
+26.2 +12 41 +31  1008.8  -0.7  718  262           
15 25.06.13 350 (С) 20000 м  гроза, ливневой дождь  10/6 1000 м кучево-дожд., средняя 
[Cb cap|Ac und]
+19.8 +17.5 87 +35  1010.1  719  266    +26.6     
18 25.06.13 290 (З) 20000 м  {гроза, ливн. осадки}  8/1 1000 м кучево-дожд., верхняя 
[Cb calv|Ci fib]
+20.3 +15.9 76 +32  1010.1  0.1  719  266           
21 25.06.13 290 (З) 20000 м  {гроза, ливн. осадки}  8/1 1000 м кучево-дожд., верхняя 
[Cb calv|Ci fib]
+20.3 +15.9 76 +32  1010.1  0.1  719  266           
00 26.06.13 310 (СЗ) н/о    н/о 
+17.9 +15.3 85 +28  1010.9  0.3  719  269           
03 26.06.13 300 (СЗ) 20000 м    3/1 1000 м кучево-дожд., средняя 
[Cb calv|Ac trans]
+18.9 +15.5 81 +31  1012  1.4  720  268  +17.4    0.0    влажная 
06 26.06.13 310 (СЗ) 20000 м    1/0 
[Cu hum]
+22.5 +14.6 61 +32  1011.9  0.5  721  265           
09 26.06.13 340 (С) 20000 м    8/8 600 м 
[Cu hum]
+25.9 +14.8 50 +35  1012  0.7  721  262           
12 26.06.13 020 (С) 20000 м    8/8 1000 м 
[Cu hum]
+27.4 +14 44 +35  1011.9  721  261           
15 26.06.13 020 (С) 20000 м    3/3 1000 м 
[Cu hum]
+27.5 +13.9 43 +35  1012  0.2  721  261    +28.2       
18 26.06.13 020 (С) 20000 м    1/0 средняя 
[Ac trans]
+23.4 +12.6 51 +29  1013.8  722  266           
21 26.06.13 030 (СВ) 20000 м    ясно 
+21.9 +12.4 55 +27  1014.1  722  267           
00 27.06.13 030 (СВ) н/о    н/о 
+19.7 +11.2 58 +25  1014.9  722  269           
03 27.06.13 110 (В) 20000 м    ясно 
+21.3 +14.1 63 +29  1014.7  0.5  723  267  +19.8        сухая 
06 27.06.13 130 (ЮВ) 20000 м    1/1 600 м 
[Cu hum]
+26.4 +13.5 45 +33  1014.3  0.5  723  263           
09 27.06.13 090 (В) 20000 м    5/5 600 м 
[Cu med, cong]
+29 +13.2 38 +36  1013.9  723  261           
12 27.06.13 070 (В) 20000 м    8/8 1000 м 
[Cu med, cong]
+29.4 +11.7 34 +34  1013.5  -0.3  723  261           
15 27.06.13 060 (СВ) 20000 м    4/4 1000 м 
[Cu hum]
+29.7 +11.4 32 +34  1012.4  -1  722  260    +30.6       
18 27.06.13 030 (СВ) н/о    н/о 
+24.9 +7.8 34 +25  1013.1  722  265           
21 27.06.13 060 (СВ) 20000 м    ясно 
+23.2 +11 46 +27  1012.9  -0.4  722  266           
00 28.06.13 030 (СВ) 20000 м    ясно 
+20.8 +11.7 56 +25  1013.1  -0.2  721  268           
03 28.06.13 тихо ()   н/о    н/о 
+23.5 +13.5 53 +31  1012.1  -0.4  721  265  +18.9         
06 28.06.13 090 (В) 20000 м    ясно 
+27.9 +13.8 42 +36  1010.8  -0.4  721  261           
09 28.06.13 030 (СВ) 20000 м    4/4 1000 м 
[Cu hum]
+31.5 +11.5 29 +36  1009.7  -0.5  720  258           
12 28.06.13 040 (СВ) 3{11}  20000 м    5/5 1000 м 
[Cu hum]
+32.2 +8 22 +32  1008  -1.8  719  258           
15 28.06.13 110 (В) 20000 м    3/3 1000 м 
[Sc diur, vesp]
+31.4 +10.8 28 +35  1007.1  -1  718  258    +33.1       
18 28.06.13 360 (С) 20000 м    3/3 1000 м 
[Sc]
+27.3 +8.9 31 +28  1007.8  718  262           
21 28.06.13 150 (ЮВ) 20000 м    3/0 средняя 
[Ac trans]
+20.4   1008.1  -0.8  718             
00 29.06.13 200 (Ю) 20000 м    3/0 средняя 
[Ac trans]
+20.5 +11.2 55 +24  1007.6  -0.5  717  267           
03 29.06.13 240 (ЮЗ) 20000 м    3/0 средняя 
[Ac trans]
+24.3 +11.4 44 +28  1006.9  717  263  +18.3        сухая 
06 29.06.13 150 (ЮВ) 20000 м    8/3 1000 м средняя 
[Sc|Ac trans]
+30.3 +12 32 +35  1005.9  717  258           
09 29.06.13 310 (СЗ) 20000 м    3/3 1000 м кучево-дожд., средняя 
[Cb calv|Ac trans]
+31.3 +11.9 30 +36  1005.2  -0.5  717  257           
12 29.06.13 040 (СВ) 6{11}  20000 м  гроза без осадков{ливн. осадки}  5/5 1000 м кучево-дожд. 
[Cb calv]
+31.2 +13.4 34 +38  1004.4  -0.8  716  256           
15 29.06.13 080 (В) 2{10}  20000 м  гроза без осадков  8/4 1000 м кучево-дожд., верхняя 
[Cb calv|Ci fib]
+27 +14.3 46 +36  1004.9  -0.1  716  260    +32.6     
18 29.06.13 200 (Ю) 5{11}  10 км  гроза, ливневой дождь  10/5 600 м кучево-дожд., средняя 
[Cb cap|Ac und]
+18.5 +17.2 92 +33  1011.4  4.7  720  268           
21 29.06.13 210 (ЮЗ) 5{13}  20000 м  {гроза, ливн. осадки}  10/5 1000 м кучево-дожд., средняя 
[Cb calv|Ac und]
+19.8 +14.2 70 +28  1007.8  -3.3  717  267           
00 30.06.13 210 (ЮЗ) 20000 м  {гроза}  4/3 1000 м кучево-дожд., средняя 
[Cb cap|Ac lent]
+18.2 +14.1 77 +27  1007.5  -0.6  717  268           
03 30.06.13 260 (З) 20000 м    3/0 средняя 
[Ac cast]
+20.9 +14.7 68 +30  1007.2  0.2  717  265  +17.8      влажная 
06 30.06.13 290 (З) 20000 м    ясно 
+24.3 +17.5 66 +39  1006.7  0.1  717  261           
Время (UTC), дата Ветер
(°,м/с) 
Видим.   Явления Облачность Т
(°С)
Тd
(°С)
f(%) Тe
(°С)
Pmin
(гПа)
dP
(гПа)
Po
(мм)
O2
(г/м3)
Тmin Tmax R s Состояние
почвы